Погода в Кызылорде

Погода в Кызылорде : погода сейчас, прогноз погоды и архив. Всё, что Вы хотите узнать о погоде в Кызылорде!

Хотите узнать прогноз погоды в Кызылорде? Тогда Вам сюда: Погода в Кызылорде

Поиск расширенной информации на нашем сайте:

Полезная информация:

Другие новости

Новости СМИ2

Главная страница сайта

Новости сайта

03.07.2017

Напоминаем, что на нашем специализированном сайте Метеоцентр.Азия вы можете получить высокодетализированные автоматические прогнозы погоды по пунктам России, СНГ и мира в авиационном формате (включающие направление и скорость ветра, видимость, явления погоды, количество и форму облачности, нижнюю и верхнюю границу облачности).

Рекомендуем:

Погода в Кызылорде - сегодня

Время (UTC), дата Ветер
(°,м/с) 
Видим.   Явления Облачность Т
(°С)
Тd
(°С)
f(%) Тe
(°С)
Pmin
(гПа)
dP
(гПа)
Po
(мм)
O2
(г/м3)
Тmin Tmax R s Состояние
почвы
21 18.05.19 тихо ()   н/о    3/3 1000 м кучево-дожд. 
[Cb cap]
+20 +9 49 +20  1008.2  0.4  745  278           
00 19.05.19 тихо ()   н/о    6/0 средняя, верхняя 
[Ac lent|Ci]
+15.7 +6.2 53 +16  1009.4  0.9  746  283           
03 19.05.19 020 (С) 20000 м    3/0 верхняя 
[Ci]
+19.2 +7.4 46 +21  1010.7  1.5  747  280           
06 19.05.19 340 (С) 20000 м    4/0 верхняя 
[Ci fib]
+26.3 +6.4 28 +26  1010.7  0.4  747  274  +15.2         
09 19.05.19 310 (СЗ) 20000 м    9/4 1000 м кучево-дожд., средняя 
[Cb cap|Ac lent]
+29.2 +4.3 20 +29  1010.1  -0.5  747  271           
12 19.05.19 290 (З) 20000 м    6/3 1000 м кучево-дожд., средняя 
[Cb calv|Ac cuf]
+29.4 +1.7 17 +29  1008.7  -1.4  746  271           
15 19.05.19 260 (З) 20000 м    8/8 600 м кучево-дожд. 
[Cb cap]
+27.3 +7.3 28 +27  1008.9  0.1  746  272    +30.8       
18 19.05.19 290 (З) н/о  зарница{ливн. осадки}  9/9 600 м кучево-дожд. 
[Cb cap]
+22.7 +10.4 46 +24  1009.8  0.7  746  276    +30.8       
21 19.05.19 260 (З) н/о  в посл. час ливневой дождь{гроза}  10/10 600 м кучево-дожд. 
[Cb cap]
+20.8 +12.3 58 +25  1010.7  0.8  747  277           
00 20.05.19 210 (ЮЗ) 4000 м  слаб. ливневой дождь{гроза}  10/10 600 м кучево-дожд. 
[Cb cap]
+17.6 +13.5 77 +24  1010.5  -0.3  746  280           
03 20.05.19 тихо ()   20000 м  {ливн. осадки}  8/5 600 м кучево-дожд., средняя 
[Cb calv|Ac cast]
+20 +14.5 71 +28  1011  0.6  747  277         
06 20.05.19 130 (ЮВ) 20000 м  {ливн. осадки}  10/10 600 м кучево-дожд. 
[Cb cap]
+23 +15.3 62 +32  1008.2  -2.6  745  274  +17       
09 20.05.19 140 (ЮВ) 20000 м  {ливн. осадки}  9/6 600 м кучево-дожд., средняя 
[Cb cap|Ac cuf]
+28.1 +13.2 40 +34  1006  -1.9  744  269           
12 20.05.19 270 (З) 20000 м  гроза без осадков{ливн. осадки}  10/10 600 м кучево-дожд. 
[Cb cap]
+28.3 +16.4 48 +40  1005.8  -0.2  743  268           
15 20.05.19 350 (С) 20000 м  {гроза, ливн. осадки}  9/6 600 м кучево-дожд., верхняя 
[Cb cap|Ci]
+23.6 +14.5 57 +32  1005.3  -0.7  743  273    +32.7  0.7     
18 20.05.19 010 (С) н/о  в посл. час ливневой дождь{гроза}  10/10 600 м кучево-дожд. 
[Cb cap]
+21.1 +13 60 +27  1007.3  1.8  744  276    +32.7  0.7     
21 20.05.19 тихо ()   н/о  слаб. ливневой дождь  10/10 300 м кучево-дожд. 
[Cb cap]
+18 +15.4 85 +28  1006.9  -0.5  744  278           
00 21.05.19 тихо ()   20000 м  {ливн. осадки}  8/4 600 м кучево-дожд., средняя 
[Cb calv|Ac lent]
+15.8 +14.2 90 +23  1007.2  0.2  744  280           
03 21.05.19 310 (СЗ) 20000 м    4/0 средняя 
[Ac lent]
+18 +14 77 +26  1008.5  1.3  745  279         
06 21.05.19 320 (СЗ) 20000 м    4/0 верхняя 
[Ci fib]
+22.6 +13.2 55 +28  1008.7  0.4  745  275  +15.2       
09 21.05.19 280 (З) 20000 м    9/6 1000 м верхняя 
[Cu med, cong|Ci fib]
+27.1 +9.2 32 +27  1007.1  -1.3  744  271           
12 21.05.19 300 (СЗ) 20000 м    3/3 1000 м 
[Cu med, cong]
+27 +5.6 26 +27  1006.9  -0.2  744  272           
15 21.05.19 320 (СЗ) 20000 м    ясно 
+21.1 +7.8 42 +21  1009.6  2.3  746  278    +29.1       
18 21.05.19 320 (СЗ) н/о    ясно 
+16.5 +8 57 +17  1011.3  1.5  747  282    +29.1       
21 21.05.19 330 (СЗ) н/о    3/0 средняя 
[Ac cast]
+13.1 +5.9 62 +13  1014.2  2.6  749  287           
Время (UTC), дата Ветер
(°,м/с) 
Видим.   Явления Облачность Т
(°С)
Тd
(°С)
f(%) Тe
(°С)
Pmin
(гПа)
dP
(гПа)
Po
(мм)
O2
(г/м3)
Тmin Tmax R s Состояние
почвы

Для получения пояснительной информации подведите курсор к названию столбца.

ПОГОДА в Кызылорде - архив

Всё, что Вы хотите узнать о погоде в Кызылорде - удобно и подробно!

Выберите нужную дату (начиная с 1 января 2018* года) и нажмите кнопку "Найти".
Будут отображены архивные сводки погоды по пункту Кызылорда, начиная с указанной даты.


Отображать данные в формате CSV (для использования в таблицах Excel)


Внимание! Наш архив погоды предназначен исключительно для личного некоммерческого использования в познавательных целях. Если Вам необходимы официальные справки о состоянии погоды (для производственных, юридических, коммерческих и т.п. целей), обращайтесь в органы Росгидромета.

*Примечание: данная дата относится к архиву по метеостанциям СССР (Россия, СНГ, Балтия).
Архив по метеостанциям Зарубежной Европы и Азии (кроме Китая) хранится 10 дней, по другим регионам земного шара (Китай, Африка, Америка, Австралия, Океания) - 1 день.

Кызылорда - район местоположения метеостанции


Название, широта, долгота, высота метеостанции:
Кызылорда (город) 44.8°ш. 65.5°д. 130 м над ур. моря [Казахстан]

Дополнительная информация

В oтличие oт бoльшинства пoгoдных сайтoв мы публикуем пoдрoбную метеoинфoрмацию в детальнoм прoфессиoнальнoм фoрмате.

Характеристики температуры и влажнoсти вoздуха измеряются на высoте 2 м в тени вдали oт зданий и деревьев.
Скoрoсть ветра измеряется на высoте 10 м (на урoвне рoста челoвека скoрoсть ветра ниже в 1.5-2 раза). Если метеoстанция нахoдится в гoрoде или в лесу, тo скoрoсть ветра занижена на 2-4 м/с пo сравнению с oткрытым местoм. Скoрoсть ветра над акватoриями крупных рек и oзёр, а также на вершинах хoлмoв на 2-5 м/с выше, чем в oбычных услoвиях.
Атмoсфернoе давление в разных тoчках местнoсти мoжет значительнo oтличаться oт давления на метеoстанции, в зависимoсти oт услoвий рельефа (при пoдъёме на 10 м давление пoнижается примернo на 1 мм рт.ст.).